ECMWFFLT1_925_spd_162.txt.gz
Wind_Speed
25 24 24 22 21 21 23 27 29 30 29 29 30 30 27 26 25 25 25 24 22 21 19 19 18 17 16 15 13 13 13 12 10 11 12 11 9 6 4 4 3 3 4 3 2 3 3 2 2 5 8 11 12 10 13 17 17 17 16 15 14 15 15
26 24 23 21 21 22 23 26 28 30 31 31 30 30 29 27 26 26 25 25 23 22 20 19 18 17 16 15 14 14 14 12 10 10 11 10 9 7 6 5 4 6 7 6 5 5 5 3 1 2 3 8 14 15 18 19 17 16 15 15 16 16 16
24 23 23 22 23 24 24 26 28 30 31 30 28 28 28 27 27 25 24 25 24 23 21 19 19 18 16 14 14 14 14 13 11 10 10 9 9 7 6 4 4 4 5 6 6 6 6 5 3 2 3 6 10 14 18 20 18 16 15 15 16 16 16
24 24 24 25 26 27 27 27 28 30 31 30 28 27 28 27 26 24 23 24 23 23 21 20 20 20 17 15 14 13 12 12 11 10 9 9 8 7 5 3 4 3 3 4 6 6 5 5 4 3 3 7 10 12 16 19 18 17 16 15 15 15 15
26 26 27 29 31 30 29 28 28 29 30 30 27 26 27 27 26 23 23 24 24 23 22 21 22 21 17 15 14 13 12 11 10 10 9 9 8 7 6 4 4 4 4 6 7 7 7 7 6 4 3 7 10 12 15 18 18 17 16 15 13 14 14
28 29 30 32 32 31 30 29 29 29 30 31 30 28 28 28 27 25 24 25 25 24 23 22 22 21 18 16 15 14 13 12 10 9 9 8 7 7 7 6 5 5 6 6 6 7 9 9 8 5 4 5 7 11 12 14 16 15 14 13 12 12 13
29 30 31 32 31 30 31 30 30 30 30 32 33 33 31 30 30 27 25 27 27 25 23 22 22 21 19 18 16 15 13 11 10 9 9 8 7 6 7 7 6 6 6 6 5 6 7 8 8 7 5 5 7 9 9 9 11 11 10 10 10 11 12
29 30 31 31 30 30 31 31 31 31 30 31 33 34 34 33 32 29 27 27 27 25 23 23 22 21 20 18 16 14 12 10 9 9 8 7 7 7 7 7 6 5 5 4 3 4 6 8 8 8 6 6 6 5 4 6 9 9 11 11 11 11 11
30 30 29 29 29 30 31 32 31 30 29 30 31 33 34 34 33 31 28 27 27 25 24 24 23 22 21 18 16 13 11 9 9 9 8 7 7 8 8 7 5 5 5 5 6 8 9 9 8 7 4 6 6 4 3 3 4 6 9 12 11 10 11
31 30 28 28 29 30 31 32 31 29 28 28 30 32 33 33 33 31 28 28 26 25 25 25 24 23 21 19 16 14 12 10 9 9 8 8 8 9 9 6 5 5 7 8 9 10 8 6 5 5 3 4 6 6 3 2 1 2 6 9 9 9 11
31 30 28 27 28 30 32 31 30 29 28 29 31 32 32 32 32 31 30 28 27 27 27 27 25 24 22 20 17 14 13 12 10 10 9 8 9 9 8 7 7 8 9 8 8 7 5 4 5 6 5 4 4 5 5 4 2 3 6 9 9 9 10
30 29 29 27 27 30 32 32 30 30 29 30 32 33 33 33 32 32 31 29 29 29 28 27 27 25 23 20 17 15 14 13 12 11 10 9 10 10 8 9 9 9 8 9 8 7 5 6 6 6 6 5 3 4 7 6 3 3 7 9 10 10 9
28 28 28 27 27 29 31 31 31 31 31 32 34 34 34 35 34 33 32 31 31 30 29 29 27 25 22 19 18 16 15 14 13 13 11 10 11 11 10 10 10 8 8 9 8 7 6 6 6 6 5 4 4 5 7 8 6 5 9 11 11 10 8
27 27 27 27 27 27 30 31 31 31 31 32 34 35 36 35 32 31 31 30 30 30 29 28 27 25 22 19 17 16 16 15 14 14 13 12 12 12 11 11 9 7 8 10 9 8 7 6 5 6 6 5 6 7 8 10 9 8 9 11 11 10 7
27 26 26 27 27 27 30 31 31 31 31 32 34 36 36 33 31 30 28 27 28 27 25 26 25 23 22 20 18 18 17 16 16 16 15 14 14 13 13 12 11 9 10 11 11 8 8 7 6 7 7 5 6 8 8 9 10 8 9 10 10 9 6
26 26 26 27 27 28 30 30 31 31 30 31 33 34 33 31 32 31 27 27 29 27 25 23 21 20 20 20 20 19 19 18 17 16 16 16 15 15 14 13 11 11 11 12 11 9 8 9 7 7 6 5 7 9 8 8 9 9 9 9 9 8 7
26 26 27 28 27 28 29 29 29 29 30 31 31 31 28 25 28 27 23 26 27 26 26 23 21 20 20 19 21 20 19 18 17 16 15 16 16 15 15 13 11 10 10 11 11 9 9 9 8 8 8 8 9 9 7 8 8 7 8 9 9 8 8
28 28 28 28 27 27 26 26 27 28 29 29 28 28 24 20 24 26 24 27 29 28 28 27 25 23 20 20 21 20 19 19 18 17 16 16 16 16 14 13 12 11 10 10 10 10 10 10 9 9 9 9 8 7 7 7 5 4 8 11 11 9 8
28 29 28 27 26 26 26 26 27 27 27 27 25 25 24 21 25 28 28 30 32 31 30 28 25 22 21 22 21 19 20 21 19 18 17 15 15 15 13 12 12 11 10 10 10 11 11 11 10 9 9 10 7 6 8 7 4 5 10 13 11 9 8
29 29 28 26 25 26 26 26 26 25 25 24 23 23 24 21 22 24 25 27 30 31 30 27 23 21 22 23 21 21 22 21 19 18 17 16 15 14 12 12 11 10 9 9 10 12 11 11 11 10 10 10 7 8 10 8 6 9 12 13 10 9 8
29 28 27 26 25 26 26 26 25 25 24 24 24 24 24 22 21 21 22 24 27 29 29 25 21 21 22 22 22 23 23 21 20 19 18 17 15 13 12 10 10 9 9 9 11 12 12 11 11 10 10 9 7 8 10 8 9 12 13 12 11 9 8
28 27 26 26 26 26 26 25 24 25 24 24 25 24 21 22 24 23 22 24 25 26 25 22 19 20 24 24 23 23 23 22 22 21 19 17 14 11 10 8 8 8 9 11 12 12 12 11 10 10 10 10 8 9 9 9 11 14 13 12 10 9 7
27 26 27 27 26 26 26 24 24 24 23 23 25 23 20 21 24 24 23 24 24 23 21 19 18 21 25 25 24 25 24 24 23 21 19 16 12 9 7 6 7 7 9 11 13 13 13 11 9 9 10 10 8 9 11 12 13 13 11 11 10 7 7
27 27 27 27 26 26 25 24 23 23 23 23 23 23 21 19 20 23 25 25 25 24 21 21 22 25 26 25 25 26 25 24 23 21 18 16 12 10 8 9 9 9 10 11 12 12 12 10 9 10 11 10 8 9 10 12 13 11 10 10 8 7 6
27 27 27 27 27 26 25 24 23 22 23 23 22 22 22 20 19 22 25 27 28 27 24 24 26 28 28 26 26 26 25 24 23 20 18 15 13 12 13 14 14 13 12 12 12 12 11 11 11 11 11 10 9 8 8 9 10 9 8 9 9 8 7
26 26 26 27 26 26 25 24 23 23 23 23 23 23 23 22 21 23 26 27 28 27 25 24 27 29 28 27 26 25 24 23 22 20 17 15 14 14 16 17 16 16 15 13 13 13 13 13 13 12 11 10 9 8 8 8 8 7 8 11 13 11 8
25 24 24 26 26 25 25 24 23 23 23 23 24 24 24 24 23 24 25 26 26 26 25 25 27 28 27 27 26 25 23 22 21 20 17 16 15 16 16 17 17 17 15 13 12 14 15 15 15 13 11 10 9 9 8 7 7 8 11 13 14 13 11
24 23 23 24 25 25 25 24 23 22 23 23 23 22 23 24 25 26 26 26 27 26 25 26 26 26 27 28 26 24 23 22 22 20 18 17 16 16 16 16 16 16 14 11 10 10 12 14 16 16 15 12 11 10 8 8 10 12 14 13 13 13 13
23 22 23 23 24 24 23 23 23 22 22 22 22 22 23 24 26 27 27 28 28 26 25 25 25 26 27 28 26 24 23 23 22 20 19 18 17 17 17 16 15 14 13 11 10 9 9 10 11 14 16 15 14 13 13 13 13 13 12 11 10 10 11
23 22 22 22 23 23 22 22 23 23 22 22 23 23 24 25 26 28 28 28 28 27 26 26 25 25 27 27 27 25 24 22 22 21 20 20 20 19 17 16 14 13 12 11 11 10 9 9 9 11 13 14 14 14 14 13 11 9 8 8 7 7 7
24 23 23 22 22 22 22 23 23 23 23 23 24 25 25 24 25 27 28 28 28 27 27 27 26 25 26 27 28 26 24 22 21 22 22 22 22 20 17 15 13 12 12 12 11 10 9 8 9 10 11 12 11 11 10 9 8 5 4 3 2 2 3
26 25 23 22 22 22 22 22 22 22 22 23 23 24 25 24 24 25 26 27 28 28 27 28 27 26 26 28 28 26 24 22 20 22 24 24 23 21 18 16 14 12 12 12 11 10 9 7 9 11 11 11 10 9 8 7 5 4 2 2 2 2 2
27 26 24 22 21 21 21 21 21 21 22 22 22 22 23 24 25 26 26 27 28 28 28 28 28 26 27 28 27 25 24 24 23 23 25 25 24 22 19 18 16 13 12 12 11 11 9 7 9 11 12 11 9 8 7 6 3 2 2 3 3 3 3
27 26 25 23 22 21 20 19 20 21 22 23 23 22 23 23 25 27 28 28 29 29 29 30 29 28 29 29 26 24 24 25 25 25 25 25 24 23 21 20 17 13 11 11 11 11 10 8 8 10 11 12 10 7 6 4 2 2 2 1 3 5 5
28 27 26 24 23 22 20 19 20 22 23 23 24 23 23 22 24 26 27 28 28 28 29 30 30 29 29 27 24 22 23 25 26 25 26 25 24 23 21 18 15 13 10 9 9 11 10 8 8 8 11 13 11 7 6 4 2 2 5 7 6 5 4
27 26 26 25 23 22 20 19 20 21 23 23 23 23 22 22 23 23 22 22 21 21 23 27 28 28 26 23 20 19 20 24 25 25 24 24 23 21 19 16 14 13 10 8 8 9 10 9 8 9 11 12 10 7 6 4 2 6 9 8 6 5 4
25 25 26 25 24 24 23 21 20 21 22 23 23 23 22 22 22 21 20 18 17 17 19 22 24 25 24 21 18 15 16 20 24 24 22 21 19 18 17 16 14 12 10 8 6 7 9 9 9 10 11 9 7 6 5 4 4 7 8 7 5 5 3

ECMWFFLT1_925_spd_168.txt.gz
Wind_Speed
27 25 24 25 25 26 26 26 25 24 24 23 22 22 22 21 20 19 19 21 23 22 20 18 17 16 17 19 19 20 20 19 18 16 14 14 13 11 9 8 6 6 9 9 8 7 4 2 4 8 10 12 15 18 18 16 14 13 12 12 12 12 12
28 26 24 24 24 25 25 25 24 24 24 23 23 23 22 21 20 19 19 21 22 22 20 19 17 17 19 20 19 19 18 17 16 15 14 15 14 13 11 10 8 8 8 7 9 8 5 4 2 3 8 11 13 15 16 15 14 13 13 12 12 12 12
26 24 23 23 25 25 25 24 24 24 24 24 24 23 22 21 21 20 20 21 22 21 20 19 17 18 19 18 18 17 16 14 13 14 14 13 14 14 13 11 11 10 7 5 7 7 6 5 4 5 8 9 9 10 12 15 14 13 12 12 11 11 11
26 24 23 23 24 24 24 24 24 24 24 23 23 23 22 22 22 22 21 22 22 21 20 18 18 18 18 17 18 17 18 17 14 15 16 13 13 14 13 13 13 11 9 7 9 10 7 5 6 7 8 9 10 10 11 13 14 13 12 11 10 10 10
28 26 25 25 25 24 24 23 23 23 23 23 23 22 22 22 24 24 23 24 23 22 21 19 18 19 19 19 19 18 19 17 13 15 17 13 13 15 14 13 12 12 11 9 11 13 11 10 13 9 8 11 9 7 12 13 12 12 11 10 9 9 8
29 28 27 26 25 25 25 24 24 23 23 23 23 23 23 23 24 25 25 26 25 24 22 20 19 19 19 19 19 18 17 15 13 14 14 12 12 14 13 13 11 11 11 9 10 13 12 14 18 12 9 9 7 8 12 11 11 11 10 10 9 8 8
30 29 27 26 25 25 25 25 25 24 25 24 25 25 24 23 25 26 27 27 26 25 23 21 21 22 19 18 19 19 16 14 15 13 12 12 12 12 12 12 11 10 10 9 10 12 11 14 20 18 12 7 7 10 8 8 10 9 8 9 8 7 7
31 30 27 26 25 25 25 25 25 25 25 25 25 25 25 25 26 27 28 28 27 25 23 22 23 23 20 17 20 19 16 16 16 13 13 13 12 12 12 11 10 10 9 9 9 9 10 14 19 25 22 11 6 5 4 6 8 7 8 11 8 7 7
30 28 27 25 24 25 25 25 25 24 24 24 24 25 26 26 27 27 27 28 27 25 24 25 24 23 19 18 21 20 17 17 17 15 15 13 12 12 11 11 11 10 10 9 9 8 9 12 18 25 27 20 11 4 2 5 4 4 10 13 8 7 7
29 28 26 25 25 25 25 25 24 23 23 23 23 24 25 25 27 27 27 27 27 26 25 25 23 21 18 18 22 22 19 19 19 17 16 13 12 12 11 11 11 11 10 9 9 10 11 12 16 23 26 24 19 10 3 3 3 4 10 12 9 7 7
28 27 27 26 25 25 25 24 24 23 22 21 21 22 23 25 27 27 26 26 23 22 24 22 18 18 17 18 21 22 20 21 21 18 16 14 13 12 12 12 11 11 11 10 10 12 12 12 15 22 24 23 21 15 9 5 3 6 11 12 9 7 8
28 27 26 25 25 25 25 25 24 23 21 20 20 21 24 27 27 25 23 19 13 13 19 19 16 16 17 20 23 23 23 24 22 19 16 15 13 13 13 13 13 12 11 12 12 12 12 11 13 18 22 20 17 15 14 10 3 6 13 12 9 8 9
28 27 26 25 25 25 25 25 24 22 21 20 20 22 27 27 25 23 20 16 11 12 16 17 16 17 19 23 25 25 25 23 21 19 16 14 13 13 13 13 13 13 13 14 13 13 12 11 11 13 16 17 15 13 14 13 5 5 12 12 10 10 10
28 26 26 25 25 24 25 25 23 21 20 19 19 23 26 24 23 22 19 17 14 15 16 17 18 19 20 24 27 27 25 21 18 16 15 14 14 13 13 14 14 15 15 15 14 13 13 12 10 10 10 11 13 13 13 14 10 8 10 12 12 12 10
27 26 25 24 23 23 24 23 22 21 20 20 22 25 23 21 21 20 16 16 15 15 16 18 18 19 22 26 27 27 26 23 20 17 16 15 14 14 14 15 16 16 16 15 14 13 13 11 9 8 8 7 10 13 14 15 15 12 11 12 13 12 9
26 25 24 24 22 22 23 22 21 20 18 20 24 24 21 20 20 17 15 15 15 15 16 18 19 20 23 26 28 28 26 25 23 20 19 17 16 16 16 16 17 16 16 15 14 12 11 11 8 6 7 7 8 12 14 15 15 15 15 14 12 11 9
25 25 23 23 21 21 21 20 20 18 17 20 23 21 18 18 17 16 16 16 16 16 17 19 20 22 24 27 29 28 26 24 22 21 19 18 17 17 17 18 17 16 16 15 14 12 11 10 9 7 7 7 8 10 12 14 16 17 18 16 12 11 10
24 24 22 21 21 20 20 20 19 17 18 21 21 18 17 18 16 15 15 17 18 18 18 20 21 23 26 28 29 27 25 22 21 20 18 17 17 17 17 18 17 16 17 16 13 13 13 12 9 7 7 8 10 10 11 13 15 16 19 18 14 12 10
24 23 22 21 20 19 19 19 18 17 20 20 17 16 17 16 14 14 15 17 18 18 18 20 22 24 27 28 28 26 23 20 19 18 17 16 16 16 16 16 15 15 15 14 13 13 13 13 10 8 7 9 11 11 11 12 13 14 17 18 15 13 10
23 22 21 20 19 19 18 18 17 18 20 17 13 14 16 13 12 13 14 15 17 16 17 20 22 24 25 26 26 25 22 18 18 17 16 15 15 15 15 14 13 12 11 10 11 13 13 13 11 8 9 11 12 12 11 12 13 15 17 17 14 12 10
22 22 21 20 19 18 17 17 16 17 18 15 12 13 13 11 11 13 13 13 14 14 15 18 21 24 24 24 23 22 19 19 20 18 16 15 16 16 15 13 11 9 8 8 10 11 12 11 11 10 11 12 12 11 11 11 13 16 18 16 14 12 10
21 21 20 20 19 18 17 16 15 16 16 13 10 10 9 8 9 11 11 11 11 11 13 16 19 23 24 22 19 18 17 18 19 18 17 16 16 15 13 11 9 8 9 9 10 10 9 9 10 12 13 14 13 12 11 12 14 17 17 15 13 12 10
20 20 20 19 19 17 16 14 13 14 14 11 7 6 6 5 6 7 8 8 9 10 13 15 17 21 22 19 17 18 18 19 18 17 17 17 16 15 13 12 11 12 12 11 10 10 9 9 10 11 12 13 14 14 13 13 14 16 16 15 14 12 10
20 20 20 19 18 17 15 14 14 13 12 10 7 6 6 5 4 5 6 8 9 10 12 15 16 17 16 14 15 18 19 18 18 17 17 17 16 16 15 14 14 13 12 12 11 11 10 10 10 10 11 12 14 14 13 14 15 16 16 15 14 12 10
20 19 19 19 18 17 16 15 15 14 11 10 8 6 5 5 5 6 7 7 8 9 11 13 14 14 13 12 14 17 18 17 18 18 16 15 15 15 14 13 12 12 11 12 11 11 12 12 11 10 10 11 13 13 12 13 14 15 15 15 14 12 10
19 19 20 20 18 17 17 17 17 15 13 11 8 6 6 6 6 6 7 7 8 9 9 10 12 13 13 13 14 15 17 16 16 17 16 14 14 13 12 11 10 11 11 10 10 11 11 12 12 11 10 11 12 11 11 11 10 10 12 13 12 11 9
20 21 21 21 19 18 18 19 18 16 15 13 10 8 8 8 7 7 8 8 8 9 10 11 13 14 14 14 13 14 15 16 16 16 15 14 13 11 9 9 9 9 8 7 8 9 10 11 11 10 10 11 11 10 10 10 9 8 8 9 8 9 8
21 20 20 20 20 19 20 20 18 16 15 13 11 10 9 8 8 9 9 7 7 9 11 12 14 14 13 13 14 13 14 16 16 16 15 14 12 10 7 6 6 5 5 5 6 8 9 10 10 10 11 11 11 10 9 9 8 7 6 6 5 6 8
21 20 20 20 21 21 21 20 18 16 15 14 13 12 10 9 9 10 10 8 8 9 12 14 16 15 13 13 14 14 15 16 17 17 16 14 12 9 7 6 6 5 5 6 7 7 8 9 10 11 12 12 11 10 10 9 9 8 8 8 9 8 9
22 20 20 21 22 23 22 20 18 16 16 17 15 12 11 10 10 11 12 11 10 10 12 16 18 17 14 14 15 16 16 17 18 17 17 15 13 10 9 7 7 6 7 8 8 8 8 9 10 11 12 12 12 11 13 14 14 13 13 12 12 11 11
22 21 21 23 24 23 21 20 19 18 18 17 14 11 10 10 11 12 12 11 10 11 13 17 20 18 15 15 16 17 18 18 19 19 18 16 14 12 11 9 7 6 7 8 9 9 7 7 9 11 12 12 12 14 16 16 14 13 12 12 11 11 10
21 22 23 24 23 21 20 20 19 19 17 14 12 12 12 13 14 13 9 7 8 10 12 16 19 19 17 16 17 18 20 21 22 21 20 19 17 15 13 11 9 7 7 8 8 8 7 5 5 8 11 12 13 15 15 14 11 10 9 8 7 7 6
21 23 24 23 21 19 19 20 20 18 14 11 12 14 15 14 12 10 7 6 8 11 12 15 18 19 19 19 19 20 22 23 24 24 23 22 20 18 16 13 11 9 8 8 8 7 7 6 4 5 8 11 13 14 13 11 8 6 4 4 4 4 4
22 23 23 21 19 17 18 19 17 15 13 13 15 15 15 12 10 8 7 7 10 12 12 14 18 20 20 20 20 21 23 24 25 24 24 23 21 20 18 15 13 12 10 9 8 7 7 7 6 6 7 9 10 11 9 7 5 4 4 4 6 6 6
22 21 21 20 18 18 18 17 15 14 16 17 17 15 14 12 11 10 9 9 10 11 12 13 16 19 22 22 22 24 24 24 24 24 24 24 22 20 18 16 14 13 12 10 9 7 6 6 7 8 8 8 8 7 7 6 5 4 4 4 4 4 3
22 21 21 19 19 19 19 16 15 16 19 18 16 15 15 15 14 13 12 11 11 11 12 13 15 18 21 23 24 25 25 24 24 24 23 22 21 20 18 16 15 14 13 11 8 5 4 5 7 9 11 12 10 8 8 8 6 5 4 2 3 3 3
21 21 20 18 19 19 18 17 17 18 19 18 17 16 16 16 16 15 14 13 13 13 13 14 15 17 20 23 25 26 25 24 23 23 21 20 19 19 18 17 16 14 13 11 8 5 4 4 5 7 9 12 12 10 8 7 6 5 4 4 5 4 3

ECMWFFLT1_925_spd_174.txt.gz
Wind_Speed
18 17 16 15 15 15 15 15 15 15 16 16 16 16 16 15 13 12 11 11 10 9 9 9 10 12 12 11 12 13 13 14 15 15 13 11 10 10 13 14 11 10 9 8 7 6 6 4 5 5 4 4 6 8 8 8 7 7 6 5 5 5 5
17 16 16 15 15 15 15 15 15 15 16 16 16 16 16 15 13 12 12 12 11 10 9 9 11 12 13 12 12 13 14 14 14 14 13 11 11 10 11 12 10 10 10 9 9 8 8 7 4 5 6 5 6 8 8 8 8 9 7 6 5 5 5
17 16 16 15 15 15 15 15 16 16 16 17 17 16 15 14 14 13 13 13 12 11 11 11 12 13 14 14 13 13 14 14 13 12 11 10 10 10 11 11 10 10 10 8 8 9 8 9 7 5 8 9 8 8 8 9 10 9 8 6 6 5 5
17 18 16 16 16 16 16 17 17 16 16 17 17 16 15 14 15 15 14 14 13 13 13 12 12 12 13 13 13 13 13 13 11 10 9 10 10 11 12 12 11 12 10 8 9 9 8 8 8 5 8 12 11 9 9 10 10 9 8 8 7 5 4
19 18 17 18 18 17 17 17 16 16 15 16 16 15 15 15 16 15 14 14 13 13 13 11 10 10 11 12 13 14 13 13 11 10 10 12 12 12 13 14 13 11 11 9 9 9 9 9 9 6 7 10 10 9 11 11 10 10 10 9 8 6 5
20 19 18 18 18 17 16 16 16 15 15 15 15 15 15 16 16 14 14 13 13 13 13 12 11 11 11 12 13 15 14 14 13 12 13 14 14 14 14 15 14 13 12 11 10 9 9 10 10 8 7 9 10 9 11 11 12 12 12 11 9 8 7
20 19 18 17 18 17 16 16 16 15 15 14 14 14 14 15 15 13 12 13 13 13 12 12 12 11 11 12 12 14 14 14 14 14 14 14 14 15 14 15 16 16 14 12 11 10 9 10 11 9 8 9 11 10 10 11 13 12 12 12 12 9 8
19 19 17 16 16 16 15 16 17 15 14 13 13 14 14 14 13 11 11 11 12 12 12 12 12 12 12 12 12 13 13 14 14 14 15 14 14 15 16 17 17 18 17 14 12 11 11 10 11 11 10 9 8 9 8 10 13 13 12 11 12 11 10
19 18 17 15 15 16 16 16 16 13 12 12 12 13 13 13 12 11 10 11 13 13 12 12 13 13 13 13 14 15 14 14 14 15 15 14 14 15 16 18 17 16 18 18 13 11 12 11 10 12 13 11 8 6 6 7 9 11 12 11 11 11 11
19 18 17 16 15 15 15 14 12 11 10 11 11 12 13 12 10 11 12 13 13 12 12 13 14 14 13 13 14 15 15 15 15 16 16 14 14 14 15 18 17 14 15 17 14 11 10 10 10 11 14 14 10 6 5 6 6 8 11 12 10 10 11
19 17 17 16 15 15 15 13 10 9 10 10 10 12 14 12 10 10 12 13 12 11 12 13 14 13 13 14 14 14 15 15 15 15 16 15 14 15 16 18 17 13 12 14 12 11 11 10 10 11 13 13 12 9 6 5 5 7 10 11 10 9 10
19 18 17 16 15 15 14 12 10 9 10 10 10 12 13 12 12 11 11 11 10 11 12 13 13 12 13 15 15 14 14 14 15 15 15 15 14 16 16 16 15 12 12 14 14 14 15 14 11 10 11 13 12 12 10 6 5 7 8 10 10 9 9
20 18 18 17 16 15 14 12 10 10 11 11 11 13 13 13 13 11 10 10 10 11 12 12 13 12 12 14 15 15 15 15 15 14 14 14 15 16 15 15 15 13 14 16 15 15 16 15 13 11 10 12 12 12 11 8 6 5 8 9 10 9 9
21 19 18 17 16 15 13 12 11 11 12 12 13 14 14 14 13 11 10 10 10 11 11 11 12 12 13 13 13 13 14 16 16 15 14 14 15 16 15 15 14 13 13 14 14 14 13 12 12 10 10 11 11 11 10 10 8 5 7 8 9 9 10
21 19 18 18 17 15 13 13 12 12 13 13 13 14 14 12 11 10 10 11 11 12 11 10 11 12 12 13 13 13 14 16 17 16 14 15 15 15 15 14 14 14 14 12 11 11 10 8 8 8 9 9 9 9 9 10 9 7 7 8 8 10 11
21 20 18 18 17 15 13 13 13 12 12 13 13 13 12 10 9 9 10 10 11 11 11 10 11 13 13 13 14 14 15 15 16 16 15 15 16 16 15 13 11 14 14 11 9 9 7 7 6 6 6 6 7 8 8 9 9 7 7 9 10 10 11
21 20 19 18 17 15 14 13 13 12 11 12 13 12 11 10 9 9 9 10 10 10 10 10 11 12 13 13 13 14 14 14 15 16 15 15 14 13 13 11 9 10 11 8 8 8 7 7 6 4 4 4 5 6 6 9 10 8 7 8 10 10 9
21 20 19 18 17 16 14 14 14 12 12 12 12 12 11 10 9 10 10 10 10 10 10 11 12 12 12 12 13 13 13 13 14 14 13 13 13 13 13 12 10 10 10 8 8 8 8 8 6 5 4 4 5 5 6 8 9 10 9 8 9 10 9
21 21 20 19 17 16 16 16 15 13 12 12 12 12 11 10 10 10 10 10 10 11 10 10 11 11 11 11 12 13 12 12 13 13 12 13 15 16 14 11 10 11 11 9 9 9 9 8 7 5 4 4 4 4 6 7 9 10 10 9 9 10 10
21 20 20 18 16 16 17 17 15 13 12 12 12 12 12 11 10 10 10 10 10 10 10 10 11 11 10 10 11 12 12 11 11 12 15 17 16 15 14 12 10 12 11 10 10 9 9 9 7 6 5 4 4 4 6 7 8 9 10 10 9 10 11
21 20 20 18 17 16 17 17 15 14 13 13 12 12 12 11 9 9 10 10 9 9 10 10 9 9 9 9 8 9 10 9 9 10 13 15 14 13 14 13 11 11 11 10 10 9 9 9 7 6 5 4 4 5 6 7 8 9 9 9 9 9 9
21 20 19 18 17 16 16 15 15 14 14 13 12 11 11 11 10 9 10 9 8 8 9 8 8 8 8 7 7 7 8 9 10 11 13 14 14 14 13 13 12 12 12 11 10 9 10 9 8 7 6 5 5 5 6 6 7 9 9 9 8 8 8
20 19 19 18 17 16 16 15 16 15 14 13 12 12 11 11 10 10 9 9 8 7 7 8 8 8 9 8 7 7 8 9 11 14 17 16 15 13 13 13 13 13 13 13 12 11 11 10 10 8 7 6 6 5 6 6 7 7 7 7 8 8 7
21 20 19 18 18 18 17 18 17 16 15 13 12 12 12 11 10 10 10 9 8 7 7 8 7 6 8 9 7 7 9 11 13 17 18 17 15 15 14 15 15 15 14 13 13 12 11 10 10 10 8 7 8 8 6 6 6 6 5 6 6 7 7
21 21 19 19 19 18 18 18 18 17 15 13 13 12 13 12 11 11 11 10 9 8 7 7 5 5 6 7 7 9 11 12 14 16 16 15 15 16 15 15 16 15 14 13 12 12 11 10 10 10 9 9 10 10 8 6 5 4 5 7 7 6 5
20 20 19 19 19 18 18 18 17 16 15 14 14 14 14 14 12 12 11 11 10 8 7 7 6 6 6 8 10 13 13 12 13 14 14 13 14 14 14 14 14 14 12 12 12 11 11 10 10 10 10 8 9 10 10 9 8 5 3 5 7 6 5
19 19 18 19 18 18 18 17 16 16 15 14 15 15 14 14 12 11 11 11 9 7 7 8 8 9 9 11 14 14 12 12 12 13 12 12 11 12 12 11 11 11 11 10 10 9 9 9 9 9 8 7 6 7 8 8 8 8 5 4 5 4 1
18 18 17 17 17 16 16 15 14 14 14 15 15 15 15 14 12 12 12 10 7 7 9 11 11 12 13 13 14 14 13 13 13 13 12 11 11 11 10 9 8 8 8 8 9 9 8 8 8 8 8 7 5 5 6 6 7 8 6 5 4 2 3
18 18 17 16 16 16 16 16 14 14 15 16 15 14 14 14 13 13 12 10 8 9 11 13 14 14 14 15 15 15 14 14 14 13 13 12 11 10 9 8 7 7 7 7 9 11 11 10 9 9 9 9 7 6 7 8 7 7 7 6 6 6 6
17 18 18 17 17 17 17 15 14 14 15 16 15 14 14 13 13 13 12 10 9 11 14 15 16 15 16 17 17 15 15 14 13 13 13 12 11 9 8 7 7 7 8 8 10 14 15 12 10 10 11 10 9 9 9 8 7 5 5 5 6 7 8
18 18 18 18 18 17 16 15 14 14 15 15 15 15 14 13 13 14 14 11 10 12 16 18 18 17 18 19 18 15 15 15 14 14 14 12 10 9 8 9 8 6 8 9 11 15 16 12 10 11 11 12 11 10 11 11 11 10 10 11 12 12 13
17 17 17 17 17 18 18 16 14 13 13 13 14 14 14 14 14 14 14 12 10 12 16 19 20 19 20 21 19 15 15 15 15 15 15 13 10 9 10 11 10 8 9 11 13 16 15 11 8 10 11 11 11 11 12 12 13 14 14 14 14 14 14
16 17 17 17 18 18 17 15 14 14 13 13 14 14 14 14 14 14 12 11 11 11 14 18 21 21 21 21 20 16 15 15 16 16 15 14 12 11 11 10 10 10 11 13 15 16 15 11 9 9 10 9 10 12 13 13 13 12 12 11 11 11 10
16 16 15 16 16 15 14 15 17 16 15 16 16 14 14 14 14 13 12 11 11 10 11 17 21 21 20 20 19 17 14 14 15 15 15 14 13 13 12 11 12 13 13 15 15 15 15 14 11 8 8 9 12 14 13 13 13 11 10 9 9 8 8
15 15 14 14 13 13 15 18 19 16 15 18 19 16 14 15 14 13 12 11 10 9 11 16 19 20 20 19 19 18 13 11 14 15 14 14 13 13 12 13 15 16 15 15 15 15 15 14 11 8 9 12 16 16 13 12 12 10 8 8 7 7 7
15 14 14 14 13 14 16 18 18 18 16 17 19 17 14 14 14 13 11 10 8 7 9 13 16 19 20 19 19 18 12 9 13 14 12 12 13 13 14 16 19 19 17 16 16 15 14 13 12 11 13 16 18 16 12 9 9 8 7 8 8 9 9
14 13 13 14 13 13 15 16 18 20 19 17 17 17 15 14 14 13 11 10 8 6 7 10 14 17 19 19 18 18 15 12 14 14 11 11 14 16 18 20 21 20 18 16 15 14 13 12 12 15 17 18 17 13 9 8 8 8 8 9 9 9 9

ECMWFFLT1_925_spd_180.txt.gz
Wind_Speed
23 23 23 22 23 22 23 24 24 25 25 25 25 25 24 24 25 24 23 22 20 21 22 21 19 18 17 17 17 16 17 18 18 17 13 12 13 12 13 13 12 11 10 9 8 4 2 3 6 8 9 9 10 9 8 9 10 12 12 10 8 9 9
22 23 23 22 24 24 24 25 25 25 26 26 25 24 25 25 24 24 23 22 21 21 21 20 20 18 17 17 17 16 15 15 17 17 16 14 14 14 13 13 12 12 12 12 13 10 6 4 4 5 7 8 8 10 10 8 9 12 12 10 8 8 9
22 24 23 23 25 24 25 26 25 25 26 26 25 24 25 24 24 24 23 23 23 21 20 19 19 18 16 16 17 16 16 15 14 15 15 13 14 15 15 14 13 12 11 10 12 13 9 6 4 4 9 10 7 9 11 10 9 10 10 10 8 7 7
23 25 25 24 26 25 24 26 24 24 25 24 25 25 25 24 23 24 24 24 23 21 20 19 18 17 17 17 17 16 16 15 15 14 14 13 13 15 16 16 14 13 12 11 12 15 11 7 5 4 9 13 11 11 13 13 12 11 9 9 9 8 7
24 26 26 24 26 25 24 24 23 23 23 22 24 26 25 24 23 24 24 23 22 21 20 19 18 17 16 16 16 16 15 16 16 15 15 14 14 16 18 17 16 15 15 14 13 14 14 11 6 3 8 13 11 11 14 15 13 12 12 10 10 10 8
25 26 26 25 26 25 23 24 22 22 22 23 25 26 26 25 23 23 25 23 22 21 20 19 18 16 15 15 15 16 16 15 16 17 18 17 16 17 19 19 19 18 17 16 14 12 14 12 8 4 5 11 9 11 14 14 12 12 12 11 11 11 10
26 26 25 24 25 23 23 24 22 21 22 24 25 25 26 26 24 23 24 23 21 20 20 19 18 16 15 14 14 14 15 16 16 18 19 19 18 18 19 20 20 21 20 18 16 17 17 12 10 7 3 5 9 12 13 14 14 12 10 11 12 11 11
25 25 24 23 23 22 22 23 22 22 23 23 24 25 24 24 24 23 23 22 20 19 19 19 18 16 15 15 14 13 14 15 16 18 20 20 20 19 20 20 20 20 19 18 18 18 19 14 11 10 5 3 5 7 8 11 14 13 13 14 13 13 12
24 23 22 22 22 23 24 24 24 23 23 22 23 23 22 23 24 23 22 21 20 19 19 18 18 16 15 15 15 14 14 14 14 15 17 18 19 19 20 20 20 20 18 19 20 18 18 17 13 11 8 5 4 3 3 6 8 10 16 18 16 15 12
24 22 22 24 26 27 25 25 24 23 22 22 22 22 22 23 24 23 21 20 20 19 18 18 18 17 15 15 15 15 15 15 14 13 14 15 17 19 19 19 18 19 18 18 19 16 15 16 15 12 9 7 6 4 3 4 5 8 16 20 18 18 17
23 22 24 30 32 27 23 23 23 22 22 22 21 21 21 21 23 22 20 19 19 19 18 17 17 16 14 14 15 15 15 15 15 14 13 11 12 16 18 17 16 18 17 15 15 14 14 17 16 13 9 7 8 8 4 3 4 7 15 18 16 18 22
23 23 27 31 30 27 23 22 21 20 21 21 20 20 21 20 21 20 19 18 18 18 17 16 15 14 14 14 14 14 15 15 15 16 14 9 8 12 15 14 15 18 18 13 11 13 14 17 16 14 11 8 7 7 4 1 1 4 13 18 14 16 23
24 26 29 30 29 28 25 20 20 20 20 20 19 20 21 20 19 19 19 17 17 16 16 15 14 14 14 14 14 14 14 14 14 15 14 10 9 13 15 14 15 17 17 13 11 13 15 15 15 13 11 9 5 4 3 3 3 2 9 13 10 14 23
27 29 31 30 30 30 25 19 20 21 20 21 20 20 20 19 19 19 18 17 16 15 15 15 14 14 14 14 14 14 13 14 13 13 13 8 5 9 15 17 17 14 12 13 13 15 17 15 15 13 12 10 6 4 4 4 3 0 3 3 6 15 23
29 30 31 29 28 28 24 20 20 20 21 22 22 20 20 19 18 18 17 16 15 14 14 15 15 15 14 14 14 14 14 14 13 13 14 9 4 6 10 14 15 13 12 15 17 18 16 13 12 12 11 10 8 5 6 5 2 1 2 1 9 19 22
30 31 30 27 27 28 26 23 21 21 22 22 21 20 19 19 19 18 17 16 15 14 14 15 16 16 15 14 14 14 14 14 13 13 11 8 7 9 10 9 11 12 14 18 18 15 12 9 9 8 9 11 9 7 7 7 5 4 5 5 8 17 20
31 30 28 26 28 29 27 25 23 22 22 20 20 20 18 18 18 18 17 16 15 15 15 15 15 15 14 14 13 13 13 13 13 12 10 7 6 7 9 9 11 12 15 16 13 10 9 10 8 6 7 9 9 8 7 7 7 6 6 7 8 10 15
30 29 28 27 29 29 28 26 24 23 21 20 19 18 17 17 17 16 16 15 15 15 15 14 14 14 14 13 12 11 11 10 10 9 8 8 6 5 7 11 13 13 13 13 11 9 8 8 7 5 5 7 8 7 6 4 5 5 4 4 7 7 9
31 28 27 28 28 29 28 27 25 24 22 20 19 18 18 17 16 15 15 15 15 14 14 14 14 13 13 12 11 10 8 7 6 6 6 6 4 6 9 11 13 14 14 13 12 10 9 8 8 7 7 6 5 6 7 5 5 5 4 4 7 8 8
31 29 27 28 29 29 28 29 28 26 24 22 20 19 18 16 14 13 14 14 15 14 14 14 13 11 11 10 9 8 6 4 4 4 6 6 5 7 10 11 12 14 15 13 11 11 12 11 10 10 10 8 6 7 7 6 5 5 4 4 6 9 10
31 30 28 29 31 29 28 30 29 24 23 22 20 19 18 15 14 13 13 14 15 14 13 13 12 11 10 9 8 6 3 3 5 6 7 8 9 11 12 12 12 14 14 12 12 13 14 13 12 12 11 9 9 8 7 6 6 5 6 6 6 6 10
30 29 27 29 30 27 26 27 25 20 18 17 17 17 16 14 13 13 13 14 14 14 13 12 12 12 11 9 9 7 5 5 6 7 8 11 13 13 13 12 12 12 12 12 13 13 13 12 12 13 12 10 8 9 9 8 8 7 8 11 10 7 10
28 27 27 28 29 26 24 24 22 18 15 13 14 16 14 13 14 14 14 14 14 13 13 11 11 11 10 9 9 8 7 6 5 7 10 12 13 13 11 11 11 11 12 12 12 12 12 13 12 11 11 9 7 9 8 8 9 8 8 10 9 6 8
27 27 27 29 29 25 24 24 22 19 17 16 17 17 14 13 14 14 14 14 13 13 13 11 10 10 9 8 8 7 6 5 5 8 11 11 13 13 11 10 12 12 13 13 12 12 12 11 11 10 10 8 7 6 3 3 6 5 3 4 5 6 6
25 26 29 31 30 26 26 25 23 20 20 20 20 19 16 14 13 14 14 13 13 13 13 12 11 11 10 9 8 6 6 7 8 10 11 11 14 14 11 11 13 13 12 13 12 12 11 9 8 8 7 7 6 4 2 3 4 3 3 3 2 1 4
25 26 30 33 31 28 27 25 23 21 20 19 18 17 15 13 12 15 14 14 13 14 13 13 13 12 10 11 11 7 7 10 11 11 13 14 14 14 12 12 13 12 12 12 11 11 10 7 7 6 6 5 4 4 4 2 2 3 4 5 7 8 7
25 26 27 28 26 25 25 24 22 21 20 18 16 14 13 12 14 16 15 14 14 14 14 13 13 11 8 11 13 11 10 12 12 12 14 15 14 14 13 13 13 11 11 11 10 10 10 8 7 6 4 4 3 3 4 4 3 1 1 4 6 9 11
26 26 25 26 25 25 24 23 22 21 20 18 16 14 13 14 17 18 16 15 15 15 14 12 9 7 7 13 16 14 13 13 13 13 14 15 14 13 12 12 11 9 9 10 10 9 9 8 7 6 6 6 6 4 2 2 2 2 1 5 7 9 10
27 26 26 26 26 26 25 24 23 22 20 18 16 14 14 16 19 19 16 15 15 14 12 9 6 6 13 19 18 15 14 14 14 14 14 14 14 12 11 10 10 9 9 9 10 8 8 8 8 8 8 8 8 6 3 3 2 1 2 5 7 8 9
27 27 27 27 26 26 25 25 23 22 21 19 16 14 16 19 19 18 16 15 14 14 11 7 5 11 20 21 17 15 15 15 14 14 14 13 13 12 10 9 10 12 11 10 11 9 9 10 9 9 10 11 10 7 5 4 3 2 2 3 5 6 6
25 27 28 28 26 25 25 23 22 21 21 19 17 17 20 20 18 17 17 15 13 13 10 7 9 18 24 21 17 15 15 16 15 14 13 13 13 13 10 8 10 12 11 10 9 9 10 12 9 9 13 14 12 8 5 4 3 3 3 3 4 4 4
24 26 27 27 23 22 21 19 18 19 19 18 19 21 21 19 18 17 17 15 13 12 10 8 14 23 25 20 16 14 15 17 17 15 14 13 13 13 11 9 9 9 8 7 7 9 13 13 8 8 12 13 12 10 6 5 5 5 5 6 6 7 7
23 23 25 24 21 20 19 17 17 18 19 21 22 20 19 18 17 17 16 14 13 11 9 11 18 24 24 19 15 13 12 14 16 16 15 15 15 13 11 10 9 7 5 4 7 13 15 12 6 7 11 12 14 12 9 8 9 9 10 11 12 12 11
20 20 23 25 24 23 22 21 22 23 23 22 20 18 18 18 18 17 15 13 11 9 7 11 20 24 22 19 15 12 11 11 12 14 15 15 16 14 11 10 9 6 4 4 10 16 14 9 7 10 12 14 15 14 12 13 13 13 13 14 14 13 11
19 17 19 22 23 22 22 23 24 22 20 18 17 17 18 18 18 17 13 10 11 9 6 10 20 24 21 19 16 11 10 10 10 11 12 13 15 16 12 9 9 7 5 8 14 15 10 6 7 10 11 14 16 15 14 15 14 12 13 14 14 12 10
17 15 16 19 19 18 18 19 19 17 16 17 17 17 18 18 17 15 13 12 13 11 7 8 18 23 20 17 16 11 8 7 8 9 10 12 16 17 10 7 9 9 9 12 15 13 9 7 9 11 13 16 18 17 14 13 12 11 11 13 14 12 10
15 15 16 18 18 17 15 15 15 15 16 18 17 17 18 18 17 14 14 15 15 13 10 9 14 20 19 16 14 12 8 6 6 8 9 12 17 17 11 9 12 12 13 15 15 13 10 9 11 14 16 17 18 17 14 12 11 10 9 10 11 10 10

ECMWFFLT1_925_spd_186.txt.gz
Wind_Speed
29 28 29 29 30 30 31 34 36 36 35 34 33 32 30 28 27 26 25 24 23 23 23 20 18 20 23 21 18 17 18 18 18 19 19 18 16 14 13 15 14 11 11 11 10 7 4 1 4 9 13 13 14 17 19 19 19 19 21 22 22 22 21
29 28 26 25 27 29 30 33 34 35 35 35 34 33 31 29 26 25 24 23 21 22 22 19 17 21 23 20 17 18 19 19 19 20 21 21 20 17 13 14 13 11 11 10 10 9 4 3 2 3 5 7 10 16 20 18 18 19 21 21 22 23 23
28 28 26 24 25 28 30 31 33 34 35 35 35 33 31 28 25 23 22 22 21 21 22 19 17 20 23 19 17 18 18 18 19 21 22 23 23 21 19 17 16 14 12 8 9 10 3 4 5 4 6 8 7 12 17 17 18 20 21 21 21 23 23
29 29 28 26 26 29 30 31 32 33 35 36 35 33 31 28 24 23 22 22 21 21 23 21 18 19 22 20 17 17 18 19 20 21 21 21 22 23 23 22 21 19 16 13 14 15 9 6 6 4 7 12 11 13 14 14 20 23 22 21 21 22 23
30 30 30 29 28 29 30 30 31 32 33 34 34 33 31 27 24 23 23 23 22 22 23 23 19 17 18 20 19 19 19 20 19 19 19 18 20 22 23 23 24 23 23 21 20 20 18 16 10 4 8 13 11 13 14 12 18 23 23 23 22 22 22
32 32 31 30 30 30 30 31 31 32 33 33 34 33 31 28 24 24 24 24 23 21 21 22 21 17 16 19 20 21 23 22 18 16 17 17 17 19 20 21 22 23 23 23 22 20 16 12 10 6 10 13 8 9 14 14 15 19 24 25 22 22 23
33 33 32 31 31 31 31 32 33 34 33 33 34 33 31 27 25 24 24 23 22 20 19 21 22 19 16 18 20 21 23 23 21 18 17 16 16 17 18 18 20 21 22 22 22 20 15 11 11 8 6 6 4 6 10 13 14 15 20 24 23 23 22
33 34 32 32 33 32 31 32 33 34 34 34 33 32 30 28 26 26 25 23 21 20 20 20 21 21 18 17 20 21 20 20 20 20 18 17 18 19 19 19 19 21 21 21 21 21 19 16 15 13 8 4 1 2 5 9 12 15 18 20 20 22 22
34 34 33 32 33 33 32 32 33 33 33 33 33 31 30 29 28 28 26 23 22 22 22 21 21 21 21 20 22 22 20 19 19 19 19 19 20 20 20 19 20 21 21 21 22 20 20 18 16 16 15 13 7 2 2 5 6 12 17 17 16 19 22
35 34 33 33 33 32 32 32 33 33 33 33 32 31 30 30 29 29 26 23 22 22 23 23 22 22 22 24 25 23 20 20 19 18 18 19 19 19 19 19 19 20 19 20 22 18 15 15 17 17 19 23 17 6 3 4 4 8 15 18 17 17 20
36 35 33 33 32 31 32 32 32 32 32 32 32 31 30 30 29 28 26 24 22 21 21 23 23 22 22 25 26 23 21 20 19 18 17 16 16 17 17 17 17 18 19 18 21 18 11 11 14 17 21 24 20 11 7 5 6 11 14 17 20 20 21
34 34 34 33 32 32 32 32 32 32 33 32 31 30 29 29 29 28 26 25 23 21 20 22 23 23 23 24 25 24 22 21 20 19 18 17 16 16 16 16 16 17 19 18 19 19 14 11 12 15 18 18 16 14 12 7 4 9 13 16 20 22 23
31 33 34 34 33 33 32 32 32 32 32 31 30 29 28 28 28 28 27 26 25 23 21 21 23 23 23 23 24 25 22 20 19 18 18 17 16 16 15 16 17 17 17 17 17 17 16 15 15 15 16 16 16 15 14 10 4 5 10 13 17 20 21
29 31 34 35 34 33 32 32 33 32 31 30 29 28 28 28 28 28 27 26 26 25 23 22 23 24 23 23 24 24 21 18 16 15 14 14 14 13 13 13 15 15 14 15 17 17 17 15 13 14 15 16 18 18 16 12 7 6 7 9 14 19 22
30 31 32 33 34 33 34 33 33 32 30 30 29 29 29 28 28 27 27 27 26 26 25 24 25 25 23 23 24 23 19 16 14 13 13 14 13 12 12 12 13 13 13 14 15 15 15 13 11 13 15 15 18 20 18 13 8 5 4 6 13 20 22
28 31 32 32 33 33 34 33 32 31 30 29 29 29 28 28 27 27 27 27 27 27 27 26 26 25 23 24 23 20 18 16 14 13 14 14 13 12 11 12 13 13 13 13 13 12 12 13 12 12 13 13 14 15 14 12 7 6 7 9 14 20 23
27 30 32 32 32 33 33 33 32 31 30 30 30 29 28 28 27 27 27 27 27 27 27 27 26 24 23 22 20 19 18 16 15 15 14 13 12 11 12 11 11 11 12 12 12 12 12 11 11 10 10 10 10 10 9 9 7 7 8 11 15 21 24
29 31 32 31 32 33 33 32 32 31 30 30 29 29 28 28 27 27 27 27 27 28 28 27 24 23 22 20 18 18 17 15 15 15 14 13 11 11 10 10 9 9 10 10 10 10 9 7 6 6 5 6 8 8 7 9 9 8 9 15 18 20 22
31 32 30 31 32 32 32 32 31 31 31 29 29 28 28 28 27 27 27 27 27 28 27 25 24 23 21 18 16 16 16 15 15 15 13 11 10 9 8 8 8 8 7 6 6 6 5 5 4 5 5 6 7 7 6 8 10 10 12 18 22 20 21
31 30 30 30 31 32 32 31 30 30 30 29 29 28 28 28 28 27 28 28 27 26 26 25 23 21 19 17 16 17 17 17 15 13 10 8 7 8 7 6 5 5 5 4 3 3 3 4 4 3 3 5 7 7 7 8 10 12 15 20 21 20 21
28 28 29 29 30 31 31 30 30 29 29 29 29 28 28 28 28 28 29 28 27 26 26 25 23 20 18 18 19 18 18 16 14 10 8 7 7 7 5 4 4 4 3 2 2 2 3 4 5 5 6 7 9 8 8 8 8 11 18 21 18 17 19
26 27 28 28 29 31 30 30 30 29 29 29 29 28 28 27 28 28 28 27 27 27 26 25 23 21 20 20 20 19 18 16 13 11 8 7 6 5 4 4 4 4 4 3 3 2 3 4 5 5 6 6 6 6 6 6 5 7 13 16 15 15 16
25 26 27 28 29 30 31 31 30 29 29 29 29 28 27 27 28 28 27 26 26 26 24 23 23 21 20 21 20 19 18 15 13 11 10 8 7 4 4 5 5 5 5 5 3 3 5 6 5 5 5 5 5 5 6 6 5 5 8 12 14 15 14
24 25 26 27 28 29 31 31 31 30 30 29 29 27 25 26 26 25 26 26 26 24 22 21 21 19 19 20 19 18 16 13 12 12 10 9 8 6 6 7 7 6 6 6 6 6 8 8 6 5 5 4 4 4 5 6 6 6 7 9 11 13 14
24 25 26 27 28 29 30 31 31 31 30 29 27 26 25 25 23 24 26 26 25 23 21 20 19 18 18 18 16 15 14 13 12 12 10 9 9 8 8 9 9 8 8 8 9 10 10 9 6 5 4 3 3 4 4 5 6 6 8 9 11 12 13
25 25 26 26 27 28 29 30 31 31 31 28 26 25 25 24 24 26 27 25 23 21 20 18 17 17 17 17 16 15 15 14 12 11 10 10 10 10 11 11 11 10 10 10 11 12 11 10 8 6 5 4 4 5 4 4 4 4 4 5 8 9 10
25 25 25 26 27 28 29 29 30 31 31 29 27 26 26 26 26 27 26 24 23 21 19 17 16 16 16 15 15 15 15 14 12 11 10 11 11 12 12 12 12 13 13 12 12 11 11 10 9 8 6 6 5 4 4 3 3 2 2 1 3 6 7
25 24 24 26 28 28 28 29 30 30 30 30 28 26 25 26 26 25 25 24 23 21 20 18 15 15 15 14 14 14 14 15 14 12 12 12 12 12 12 12 13 15 15 13 12 10 10 11 10 9 8 6 5 4 3 3 3 3 3 3 3 5 5
25 25 25 27 28 28 28 29 30 30 29 29 28 25 25 25 24 24 25 25 24 23 21 18 16 15 14 14 15 15 16 17 16 14 13 13 12 11 11 12 14 15 15 14 12 10 10 10 10 10 9 8 7 6 7 7 7 7 7 7 8 9 9
25 27 27 28 28 29 28 29 31 30 28 28 27 25 25 25 23 24 26 25 25 24 21 18 17 15 15 17 18 18 18 19 18 15 14 14 13 11 10 12 14 15 14 13 12 11 11 10 11 11 11 10 10 9 10 10 10 10 10 9 9 9 8
27 29 29 29 29 28 28 30 32 30 30 30 26 24 25 24 22 23 25 24 23 22 21 19 17 16 17 20 21 21 21 20 19 17 17 16 14 12 11 12 13 13 13 13 13 12 12 12 12 12 12 12 11 11 12 11 10 10 9 9 8 7 6
29 30 30 28 28 29 28 30 31 31 32 29 24 24 25 22 21 23 23 21 21 21 21 19 17 16 20 23 23 23 22 22 21 20 20 19 17 14 13 13 12 11 12 14 14 13 13 13 13 12 12 13 13 12 12 11 10 10 10 9 8 7 7
29 30 29 28 28 29 29 30 30 31 29 24 22 23 23 21 22 22 21 21 21 21 20 19 17 17 22 25 25 24 23 23 23 24 23 22 20 17 15 14 13 12 13 14 15 15 14 14 13 13 13 13 12 12 14 13 11 11 11 12 11 10 10
28 28 28 28 28 29 30 30 30 30 26 21 22 23 22 21 22 22 21 21 21 20 19 18 16 18 24 26 25 24 24 23 24 25 25 23 20 18 17 17 15 15 14 14 15 16 15 15 14 13 13 12 10 12 15 15 13 13 13 14 14 13 13
26 26 27 27 28 29 29 29 29 29 25 23 24 24 23 22 23 23 22 22 22 20 18 15 15 20 26 26 23 23 23 24 25 26 25 23 20 18 17 16 17 17 16 15 16 17 17 16 14 12 12 12 10 13 16 16 16 15 15 15 15 15 15
26 26 25 26 28 28 28 28 28 27 26 24 24 24 24 24 25 25 24 22 21 20 17 15 17 23 26 24 22 22 23 25 26 25 24 22 20 18 16 16 17 19 18 17 18 19 19 18 14 12 13 14 14 16 18 18 17 17 17 17 16 16 16
23 22 21 23 26 27 27 27 26 26 26 25 24 24 24 25 26 25 22 21 21 20 17 16 19 24 24 21 19 21 23 25 25 23 20 19 17 17 16 16 18 19 18 18 18 18 20 20 16 14 17 17 17 20 21 20 19 18 17 17 17 17 17

ECMWFFLT1_925_spd_192.txt.gz
Wind_Speed
27 26 27 28 28 29 29 29 29 30 30 29 30 30 28 28 27 27 28 27 27 25 23 22 21 19 17 16 17 16 14 12 11 10 9 9 8 8 8 10 12 13 13 11 9 6 2 2 3 7 13 19 19 20 22 23 21 21 22 23 23 22 21
26 25 25 26 27 29 30 29 29 30 30 30 30 29 27 26 26 27 28 29 28 26 25 24 23 21 19 18 18 17 15 13 12 11 10 9 9 9 9 9 10 11 11 10 10 9 5 4 3 2 8 14 16 18 23 25 22 21 23 23 24 23 23
25 24 24 24 27 29 29 29 29 31 31 31 30 28 27 26 26 27 28 29 27 26 26 25 23 21 20 19 18 17 15 13 12 11 10 9 9 11 11 11 10 10 8 5 7 9 6 5 4 4 7 11 10 11 17 23 25 24 23 21 22 23 25
26 25 24 25 27 28 29 29 29 31 31 31 30 28 27 28 27 27 28 28 26 26 26 24 22 21 20 19 17 16 15 14 12 11 10 10 11 12 13 12 12 13 12 9 10 12 9 6 4 5 9 12 12 11 11 14 20 22 22 21 21 23 26
28 27 27 27 28 29 29 28 29 30 31 30 29 29 28 29 28 28 29 27 26 27 26 24 22 20 18 17 16 16 15 13 12 10 10 11 12 13 13 12 12 15 17 16 16 16 14 12 10 7 10 11 10 10 10 9 13 18 20 21 22 22 24
30 29 29 29 29 30 30 29 29 30 30 30 30 30 29 29 29 29 29 28 27 27 26 24 21 19 16 14 14 14 12 11 10 10 11 11 12 13 11 11 11 14 17 19 19 19 17 17 15 11 13 12 7 7 8 9 10 13 16 21 22 22 23
33 31 30 30 30 30 30 30 31 32 31 31 31 31 30 30 30 30 29 28 27 26 25 24 20 18 16 13 13 13 10 9 9 9 10 12 13 13 12 12 13 15 17 18 18 19 18 17 17 14 10 8 7 6 6 7 9 10 12 17 20 21 21
34 33 31 30 30 30 30 30 31 32 32 33 32 30 29 29 30 30 30 28 27 26 25 22 20 17 16 14 14 14 12 10 9 8 9 11 13 13 13 13 14 15 16 17 17 17 19 19 19 18 12 5 4 5 5 6 8 11 12 14 16 18 19
31 31 30 29 28 29 29 29 30 31 33 33 31 29 29 29 30 31 30 28 27 26 24 22 19 18 16 14 14 15 15 13 11 10 8 9 11 11 12 12 14 15 15 15 15 16 17 18 18 19 15 11 6 3 3 5 6 9 13 13 14 17 19
28 28 29 28 27 26 27 28 30 31 32 32 30 28 28 29 30 31 29 28 27 26 24 22 20 18 15 14 13 14 15 15 14 13 11 10 11 11 12 12 14 15 14 14 14 14 13 12 13 15 15 14 12 5 2 4 5 7 10 13 15 16 18
29 28 27 27 26 26 26 27 29 30 31 31 29 28 28 29 30 30 28 27 27 26 24 22 20 18 15 13 13 13 14 14 14 14 13 13 12 12 13 12 13 14 13 11 11 10 10 8 9 10 11 13 15 11 6 3 4 6 9 12 16 17 18
29 29 27 26 26 27 28 28 28 30 30 30 29 29 29 29 29 28 27 26 26 26 24 22 20 17 14 13 13 13 13 13 14 14 14 13 13 12 13 12 12 14 12 9 8 8 7 6 6 7 8 10 14 17 14 7 3 5 8 12 16 18 17
25 26 27 26 26 27 29 29 29 30 29 29 28 28 28 28 28 26 26 25 25 25 24 22 21 18 15 14 13 13 13 14 14 14 14 13 12 12 12 11 11 11 10 9 9 7 5 4 4 6 8 9 13 16 17 13 6 4 8 10 13 16 16
22 23 24 24 24 26 27 29 30 29 29 28 28 28 28 28 27 25 24 24 24 25 24 23 22 19 16 15 14 13 13 14 15 15 14 12 12 12 12 10 9 7 7 9 9 8 5 3 4 6 8 10 13 14 15 16 11 6 7 8 10 13 15
26 25 24 24 23 23 25 28 30 29 28 28 28 28 28 28 27 25 24 24 23 24 25 24 22 20 17 16 14 13 12 13 15 16 15 13 12 13 11 8 6 5 5 7 8 8 6 3 3 6 8 11 14 14 14 15 13 9 7 7 8 11 14
32 29 28 28 26 25 25 28 29 29 29 28 28 28 28 28 27 25 24 23 23 24 25 24 22 20 18 17 15 13 13 14 16 16 15 14 14 12 9 6 4 4 4 6 7 7 6 5 5 6 8 11 13 14 14 15 14 12 9 8 9 11 13
33 31 32 32 30 28 26 27 29 29 29 29 29 29 28 28 27 25 23 23 23 24 24 23 22 20 18 17 15 14 14 16 16 16 16 15 13 9 6 5 4 3 3 4 5 5 5 6 7 8 9 11 12 13 13 14 15 14 11 9 10 12 13
33 35 36 33 31 29 27 26 28 29 29 30 30 29 28 28 28 25 22 21 23 23 23 22 21 19 18 17 15 14 15 16 17 17 15 14 11 7 4 4 4 3 3 4 4 4 5 5 6 7 8 9 10 12 12 13 15 15 13 11 11 11 12
35 37 37 33 29 28 27 27 29 30 30 30 30 28 27 29 29 24 19 19 21 21 21 20 19 18 17 15 14 13 14 15 16 16 15 13 10 7 4 3 4 4 4 4 3 3 5 4 4 5 6 6 8 10 11 12 13 15 14 12 11 11 12
36 35 34 31 29 29 28 28 30 31 31 30 28 27 27 29 28 21 16 17 20 19 19 18 17 16 15 13 12 12 12 13 14 15 16 13 9 6 4 5 5 5 4 3 2 4 6 5 5 5 6 7 8 9 10 11 12 13 13 12 11 11 12
36 33 30 28 29 30 29 30 30 30 30 29 28 27 27 29 27 20 16 18 20 20 19 18 16 15 14 13 13 13 14 16 13 12 14 12 9 7 6 6 7 6 5 3 3 5 5 5 5 6 6 7 8 10 11 12 12 12 12 12 11 11 12
29 27 26 27 30 31 29 29 30 30 29 28 28 28 27 28 26 19 17 20 21 21 21 19 17 15 14 14 15 15 16 16 11 9 12 12 9 8 7 7 6 6 4 3 3 5 5 4 5 5 5 5 6 8 10 11 12 12 12 12 10 10 12
24 24 26 28 30 29 28 29 29 29 28 29 29 28 27 29 25 18 17 21 22 22 21 19 17 16 15 15 15 15 14 12 8 9 13 13 11 10 9 7 6 3 3 4 4 6 6 5 4 5 5 4 4 5 6 7 9 10 12 12 12 12 14
25 27 28 30 29 28 28 29 28 28 28 29 29 28 28 29 23 16 18 21 22 22 21 20 18 16 15 16 15 13 12 10 9 11 14 13 12 12 11 10 8 3 4 6 6 7 8 7 6 6 5 4 4 5 6 6 6 8 10 11 12 14 15
27 28 29 30 29 29 29 28 28 28 28 28 28 28 29 28 20 15 17 19 20 21 20 19 17 14 13 15 14 12 12 11 11 14 15 12 12 14 13 12 9 5 4 6 7 8 8 8 7 7 6 5 5 5 5 5 5 6 8 9 11 14 15
28 28 29 29 28 29 29 28 27 28 27 28 28 28 29 25 17 13 16 17 18 19 18 16 15 12 12 11 10 11 11 10 13 16 14 12 13 14 13 12 10 8 7 8 9 10 10 10 10 8 6 5 5 5 5 4 4 4 6 7 10 12 13
27 27 28 28 28 28 27 27 28 27 27 28 28 29 27 21 14 12 14 16 18 19 17 15 13 12 11 10 10 12 11 11 14 16 14 13 13 14 13 13 12 11 10 10 11 11 12 12 11 8 7 6 5 5 4 3 3 2 3 4 6 8 9
27 27 28 28 28 28 27 28 28 28 29 30 29 29 25 17 12 12 14 16 18 19 17 15 12 11 11 12 13 14 13 13 16 17 15 14 14 14 14 13 12 11 11 11 12 12 12 12 10 8 7 6 5 5 4 3 3 2 2 2 2 3 5
28 28 29 29 29 29 29 29 29 30 30 30 30 28 21 13 11 13 15 17 19 19 17 14 12 10 12 14 15 15 15 17 18 17 15 14 14 14 13 12 11 11 11 11 12 13 13 12 10 8 8 7 6 6 5 5 4 4 3 3 3 3 4
29 29 29 29 29 29 30 30 31 31 31 30 29 25 16 11 11 14 16 18 19 18 16 14 12 12 14 16 17 17 18 19 17 15 14 14 14 13 12 11 11 11 11 12 13 14 13 12 10 9 9 8 8 8 8 8 8 7 7 6 6 5 5
30 29 29 29 29 29 30 31 32 32 32 30 26 19 13 12 13 14 17 20 20 18 16 14 14 15 17 18 19 20 21 19 17 15 14 14 14 13 12 12 11 11 12 14 15 15 14 12 10 9 9 9 10 11 11 11 10 9 9 8 7 7 7
29 28 27 27 27 29 31 31 31 31 30 26 19 14 13 14 15 17 19 21 20 18 16 14 15 17 19 20 20 22 21 18 16 15 15 15 15 13 12 13 12 12 13 15 17 16 14 11 10 10 10 10 12 12 12 11 9 8 8 7 6 6 6
27 26 25 25 26 28 29 29 30 29 25 19 14 13 14 15 17 20 21 22 20 17 16 15 16 19 21 21 22 22 19 17 16 16 16 16 16 15 14 13 12 12 13 15 16 15 13 11 10 10 9 10 11 12 12 10 8 6 5 5 5 5 5
25 25 24 24 24 25 27 28 27 23 19 15 14 15 16 19 21 22 22 21 20 18 17 17 19 22 22 22 22 20 16 15 16 17 17 17 17 15 14 13 12 13 14 15 15 14 13 11 10 9 8 8 8 11 12 10 8 6 5 6 6 6 6
23 23 23 23 23 24 24 22 19 17 17 17 18 18 20 23 23 20 19 19 19 18 17 18 21 24 23 23 21 17 15 16 17 17 17 18 17 14 13 12 13 14 15 16 16 14 13 11 10 9 8 7 8 10 10 9 8 8 8 8 8 9 8
24 23 23 24 24 22 20 18 16 16 18 19 20 20 22 23 21 17 16 17 18 17 17 19 22 25 23 20 18 15 16 18 17 16 17 19 17 15 13 13 14 15 16 16 16 14 13 11 10 9 9 8 9 10 10 10 10 10 10 11 11 11 11
25 25 24 23 21 18 17 18 18 17 18 19 20 20 21 22 20 17 15 15 17 17 18 19 22 23 20 17 16 17 19 19 16 15 16 17 16 15 15 15 15 15 16 16 15 14 13 12 10 10 9 9 10 11 11 11 11 12 12 12 12 13 13

ECMWFFLT1_925_spd_198.txt.gz
Wind_Speed
25 24 25 23 22 23 23 24 22 22 22 21 20 18 17 17 16 16 16 15 14 14 14 13 12 12 11 11 11 11 11 11 11 10 10 9 8 8 7 7 7 7 9 10 9 8 6 3 2 4 5 7 8 9 10 11 10 10 9 11 14 12 12
21 20 24 23 23 24 24 23 20 21 22 21 19 17 17 17 16 16 16 15 15 15 14 14 13 12 12 11 12 12 12 11 11 11 11 10 9 9 7 7 7 7 8 10 10 9 7 6 4 3 4 6 8 9 10 10 9 9 9 10 13 13 12
21 20 22 23 24 24 24 23 22 22 22 20 18 17 17 17 16 16 16 15 16 15 15 14 14 14 13 13 13 12 12 12 11 11 11 11 10 10 9 8 7 7 8 8 8 8 7 6 6 6 6 5 6 7 7 7 7 7 8 9 11 12 11
25 22 23 25 25 25 24 25 25 23 20 18 18 17 17 17 17 16 15 15 16 16 16 15 14 14 14 14 13 12 12 11 11 11 11 12 12 11 10 10 8 8 8 8 8 7 6 5 5 6 8 7 7 8 4 2 5 7 7 8 9 10 10
26 24 26 26 27 27 26 26 24 21 19 18 17 17 18 18 17 17 16 15 16 16 16 16 15 14 14 13 12 11 10 9 9 10 11 12 13 12 11 10 9 9 10 10 8 8 7 6 7 7 7 7 7 9 7 4 5 7 6 6 7 9 9
26 24 26 25 25 25 24 25 23 21 20 18 18 18 18 20 19 18 18 17 17 17 16 16 15 15 14 13 12 11 9 8 8 10 11 12 13 13 12 10 9 10 10 10 9 8 8 7 8 7 7 7 7 9 8 5 5 4 4 5 7 8 9
27 24 23 23 23 22 21 23 22 21 21 19 19 18 18 20 19 18 19 18 17 17 16 16 15 15 15 14 13 11 10 8 9 10 11 12 13 13 12 10 10 10 10 9 8 8 7 7 7 8 8 8 8 9 8 6 4 2 2 3 5 7 8
28 24 22 22 22 21 20 21 21 20 20 18 18 18 19 21 20 19 19 19 18 17 16 16 15 15 16 15 13 12 11 9 9 11 11 12 12 13 13 11 10 10 9 8 8 7 6 6 7 8 8 8 8 7 7 6 3 1 2 5 5 6 8
26 24 22 22 23 22 22 22 22 21 20 19 19 20 21 21 20 19 19 19 18 17 17 17 17 17 17 16 14 12 11 9 9 11 11 12 13 13 13 12 11 10 9 8 7 6 6 6 5 6 8 8 7 6 6 5 3 2 1 4 5 6 7
24 24 24 25 25 24 23 22 22 21 20 20 20 20 21 20 20 19 19 19 19 18 18 19 19 18 17 17 15 13 12 10 10 11 12 13 13 13 12 11 10 10 9 7 7 6 6 5 4 4 5 6 7 6 6 5 4 4 2 1 4 6 8
24 24 25 26 26 25 23 21 21 21 20 20 19 18 19 19 19 20 19 19 19 19 19 19 20 19 18 17 15 13 12 11 10 12 13 14 13 13 12 11 11 10 9 7 7 6 5 5 4 5 5 5 6 7 8 7 5 4 3 1 2 6 8
25 25 24 25 25 24 23 22 21 21 19 18 17 17 19 19 19 20 19 18 18 19 19 20 19 19 18 17 15 13 13 11 12 13 13 14 14 13 12 12 12 10 8 7 6 5 5 5 5 6 5 4 5 7 8 8 5 3 3 1 3 6 9
28 27 24 24 24 23 22 21 21 21 19 19 18 18 19 19 20 20 19 18 18 19 19 19 19 19 19 18 16 14 14 12 13 14 14 15 14 13 13 13 12 10 8 8 7 6 6 6 6 6 5 5 6 6 7 7 6 4 2 2 1 5 8
33 29 24 24 23 21 21 20 21 21 20 20 20 19 18 18 19 19 18 19 19 20 20 19 19 20 20 18 16 16 15 14 14 14 14 14 14 13 13 13 12 10 9 9 7 6 6 7 6 6 6 6 7 7 6 7 6 4 2 1 2 4 7
36 29 24 23 21 21 20 20 21 21 21 20 19 18 18 17 18 18 19 20 21 21 20 20 20 21 19 18 18 17 16 15 15 14 14 14 14 13 13 13 11 10 10 9 7 6 6 7 7 6 6 6 7 7 6 6 6 5 3 3 5 6 7
32 26 23 20 19 19 20 21 21 20 20 19 18 18 18 18 18 19 20 21 22 22 21 21 21 20 18 18 19 19 18 16 15 14 14 15 15 14 14 13 12 11 10 9 7 7 7 7 6 6 6 6 7 7 5 5 5 5 5 4 7 8 7
26 23 22 19 18 19 20 21 21 21 20 19 18 18 19 19 20 20 21 22 22 22 21 21 20 19 19 19 20 20 18 17 16 15 15 15 15 15 14 13 13 11 11 10 9 8 8 7 6 6 5 6 7 6 5 5 5 5 6 4 7 8 8
23 23 21 19 19 20 20 21 20 20 20 19 18 19 20 20 21 21 22 22 22 21 20 20 20 19 19 19 20 20 19 18 16 16 16 15 15 15 15 14 13 12 12 11 9 9 8 7 6 5 5 5 6 6 5 6 6 6 6 5 7 9 7
22 23 21 20 20 21 21 21 20 21 21 21 20 20 21 21 21 22 22 22 22 21 21 21 21 20 19 19 20 20 19 18 17 16 16 16 16 16 15 13 13 13 12 11 9 9 8 7 6 5 4 5 6 6 6 6 6 7 7 5 7 9 8
23 24 22 21 21 21 21 21 20 21 22 22 22 22 22 21 21 21 22 22 22 22 21 22 22 21 20 20 20 20 19 18 17 16 16 16 16 16 14 13 13 13 12 11 10 9 8 8 6 5 5 5 6 6 6 6 6 7 7 5 5 6 6
24 24 22 21 20 21 21 21 20 21 22 22 22 22 22 21 20 20 21 22 22 21 21 22 23 23 21 20 21 20 20 19 18 17 17 16 15 15 14 14 14 13 12 11 10 10 10 8 6 5 5 6 7 7 7 6 6 7 7 6 5 5 6
25 23 20 20 20 21 21 20 20 21 22 22 21 21 21 22 22 22 22 22 21 20 21 22 23 23 21 20 21 20 20 19 18 17 16 15 15 14 14 14 14 12 12 12 13 13 11 9 7 5 6 7 8 8 7 7 7 7 7 8 8 8 8
24 22 20 20 21 21 21 20 20 21 22 21 20 20 22 22 23 23 23 23 22 21 21 22 22 23 22 21 20 19 19 19 19 17 15 14 14 14 15 15 14 13 12 13 14 12 9 8 8 7 9 9 7 7 7 7 7 6 6 6 7 7 7
22 21 20 21 22 22 21 20 20 21 21 21 21 20 21 23 23 24 23 23 23 22 21 22 22 24 24 22 20 18 18 18 17 16 15 14 14 15 16 15 14 14 15 14 13 11 9 9 9 9 11 10 8 7 7 6 5 5 5 5 5 5 6
21 21 21 23 23 23 22 21 20 21 21 21 22 21 22 23 24 23 23 23 23 22 21 21 22 23 23 23 22 18 16 15 15 15 15 15 16 16 17 16 13 12 15 14 13 12 11 11 11 10 10 9 8 8 7 5 4 3 4 5 5 5 6
22 23 24 26 25 24 23 22 21 21 21 22 23 23 22 23 23 23 22 23 23 21 20 21 22 23 23 23 23 19 15 14 14 16 16 16 17 17 17 16 13 12 14 15 14 13 12 12 13 12 9 7 6 7 7 7 6 3 2 3 4 5 4
26 27 28 28 26 24 23 22 21 21 22 23 24 23 22 22 23 23 22 22 22 20 20 21 21 22 22 22 23 21 17 15 16 17 17 18 19 18 17 18 16 14 16 17 16 15 13 14 14 12 9 8 7 5 4 5 6 4 2 2 3 3 2
28 28 29 28 26 25 22 21 22 23 23 24 24 23 23 23 23 23 22 23 21 19 20 22 21 20 21 21 23 22 18 16 17 18 18 19 20 18 18 19 16 14 17 19 18 16 14 14 13 11 10 9 8 6 5 5 4 3 2 2 3 3 2
27 27 27 26 26 26 24 24 24 23 22 22 22 22 23 24 23 23 22 22 20 18 20 21 20 19 20 22 23 22 19 18 19 19 19 20 20 18 18 18 16 15 18 19 18 17 15 14 12 12 11 10 9 7 6 5 4 3 3 3 4 4 4
26 26 26 26 26 26 25 25 24 22 22 22 22 23 24 23 22 22 21 20 20 19 19 21 20 19 21 24 24 22 21 20 19 18 18 19 19 18 17 17 16 17 18 19 19 18 16 15 14 13 12 10 9 8 7 6 5 4 3 3 3 2 2
24 25 25 26 26 25 25 24 23 22 23 24 24 23 22 22 20 20 20 20 20 19 18 20 21 20 23 26 25 23 23 22 20 18 17 16 17 16 17 19 19 18 20 21 19 18 17 16 15 13 12 11 10 9 9 9 8 7 6 5 4 4 4
22 24 25 25 25 25 24 23 23 23 23 23 23 21 20 20 19 18 19 20 20 20 18 18 20 21 25 28 28 25 24 23 21 19 17 16 16 15 16 21 21 19 20 21 18 17 18 17 15 13 12 12 11 10 11 11 10 8 7 5 6 6 7
21 23 23 23 24 24 23 23 23 24 23 21 20 20 19 19 18 18 20 20 20 19 17 17 21 23 27 31 31 27 23 22 21 20 18 18 17 15 16 21 23 20 18 19 18 17 18 17 14 12 11 11 11 12 12 11 11 10 7 7 7 7 8
21 22 22 23 23 23 22 22 23 23 22 20 19 19 19 18 19 20 20 20 19 18 17 17 21 26 30 32 33 28 23 22 22 20 19 18 17 16 16 19 23 21 19 19 19 18 18 17 13 10 10 10 12 14 13 12 12 10 8 7 6 6 7
21 21 22 22 22 21 21 20 20 21 22 21 20 20 19 18 19 18 17 18 18 17 18 19 22 27 31 33 34 29 23 21 22 20 19 18 16 17 17 17 22 24 21 19 19 19 19 17 12 9 10 11 13 14 13 12 11 9 7 7 6 6 7
21 22 22 22 21 20 20 20 19 20 21 22 22 20 19 19 19 15 13 15 16 15 18 20 23 27 31 33 35 31 22 21 23 20 18 18 17 17 17 16 21 25 22 20 20 19 18 16 12 11 12 13 14 14 13 11 10 9 8 7 7 7 8
21 21 21 22 21 20 21 21 20 20 21 22 21 20 21 21 21 17 14 15 13 11 14 17 21 27 31 33 36 32 22 20 23 20 16 17 16 16 16 17 21 25 23 21 21 19 17 16 14 13 13 14 14 14 11 10 10 9 9 9 9 9 8